This demonstration page uses our WeatherBlox Daily Observations layout. Learn more.

38.88101, -77.10428

Hourly Observations for August 25, 2018

Temp ( °F °C ) Dew Point ( °F °C ) Humidity (%) Winds ( mph kmh ) Pressure ( in mb ) Visibility ( mi km ) Precip ( " mm )
12:52 am 00:52 Mostly Clear 71 21.7 58 14.4 63 63 S 5 7 30.25 1024 10 16.0934 0 0
1:52 am 01:52 Partly Cloudy 71 21.7 58 14.4 63 63 SW 3 6 30.25 1025 10 16.0934 0 0
2:52 am 02:52 Mostly Cloudy 69 20.6 59 15 70 70 SSE 3 6 30.25 1024 10 16.0934 0 0
3:52 am 03:52 Mostly Cloudy 68 20 60 15.6 76 76 Calm 30.24 1024 10 16.0934 0 0
4:52 am 04:52 Mostly Cloudy 68 20 60 15.6 76 76 W 5 7 30.24 1024 10 16.0934 0 0
5:52 am 05:52 Mostly Cloudy 68 20 60 15.6 76 76 Calm 30.24 1024 10 16.0934 0 0
6:52 am 06:52 Mostly Cloudy 67 19.4 59 15 76 76 Calm 30.26 1025 10 16.0934 0 0
7:52 am 07:52 Mostly Cloudy 69 20.6 61 16.1 76 76 Calm 30.28 1025 10 16.0934 0 0
8:52 am 08:52 Mostly Cloudy 72 22.2 63 17.2 73 73 ESE 3 6 30.28 1025 10 16.0934 0 0
9:52 am 09:52 Mostly Cloudy 76 24.4 63 17.2 64 64 ESE 3 6 30.28 1025 10 16.0934 0 0
10:52 am 10:52 Mostly Cloudy 77 25 61 16.1 58 58 S 7 11 30.28 1025 10 16.0934 0 0
11:52 am 11:52 Mostly Cloudy 79 26.1 59 15 50 50 SSW 6 9 30.27 1025 10 16.0934 0 0
12:52 pm 12:52 Mostly Cloudy 80 26.7 59 15 49 49 S 8 13 30.26 1025 10 16.0934 0 0
1:52 pm 13:52 Mostly Cloudy 80 26.7 61 16.1 52 52 S 8 13 30.25 1025 10 16.0934 0 0
2:31 pm 14:31 Mostly Cloudy 80 26.7 60 15.6 51 51 S 7 11 30.24 1024 10 16.0934 0 0
2:52 pm 14:52 Mostly Cloudy 82 27.8 60 15.6 47 47 S 9 15 30.24 1024 10 16.0934 0 0
3:52 pm 15:52 Mostly Cloudy 81 27.2 61 16.1 51 51 S 9 15 30.22 1023 10 16.0934 0 0
4:52 pm 16:52 Mostly Cloudy 82 27.8 61 16.1 49 49 SSE 12 19 30.21 1023 10 16.0934 0 0
5:52 pm 17:52 Mostly Cloudy 81 27.2 57 13.9 44 44 S 9 15 30.2 1023 10 16.0934 0 0
6:52 pm 18:52 Partly Cloudy 79 26.1 59 15 50 50 S 9 15 30.19 1022 10 16.0934 0 0
7:52 pm 19:52 Partly Cloudy 76 24.4 61 16.1 60 60 S 8 13 30.19 1022 10 16.0934 0 0
8:52 pm 20:52 Mostly Clear 75 23.9 61 16.1 62 62 S 5 7 30.19 1023 10 16.0934 0 0
9:52 pm 21:52 Mostly Cloudy 73 22.8 59 15 62 62 SSE 5 7 30.21 1023 10 16.0934 0 0
10:52 pm 22:52 Mostly Cloudy 73 22.8 59 15 62 62 Calm 30.22 1023 10 16.0934 0 0
11:52 pm 23:52 Mostly Cloudy 73 22.8 60 15.6 64 64 Calm 30.22 1023 10 16.0934 0 0

Powered by AerisWeather